This is the latest recevied weather packets stored in our database for station/object KE0WPC. If no packets are shown the sender has not sent any weather packets the latest 1 day(s).
| Time | Temp. | Humidity | Pressure | Rain* | Wind** | Luminosity | Snow |
|---|---|---|---|---|---|---|---|
| 1778118570 | 5.56° C | 43% | 1015.4 hPa | - | - | - | - |
| 1778118267 | 6.11° C | 43% | 1015.1 hPa | - | - | - | - |
| 1778117963 | 6.67° C | 43% | 1015.4 hPa | - | - | - | - |
| 1778117660 | 6.67° C | 43% | 1015.1 hPa | - | - | - | - |
| 1778117358 | 6.67° C | 43% | 1015.1 hPa | - | - | - | - |
| 1778116751 | 7.22° C | 42% | 1015.1 hPa | - | - | - | - |
| 1778116448 | 7.22° C | 41% | 1015.1 hPa | - | - | - | - |
| 1778115843 | 7.78° C | 41% | 1015.1 hPa | - | - | - | - |
| 1778115237 | 8.33° C | 40% | 1015.1 hPa | - | - | - | - |
| 1778114934 | 8.33° C | 40% | 1015.1 hPa | - | - | - | - |
| 1778114631 | 8.89° C | 39% | 1015.1 hPa | - | - | - | - |
| 1778114328 | 8.89° C | 39% | 1015.4 hPa | - | - | - | - |
| 1778113415 | 9.44° C | 38% | 1015.4 hPa | - | - | - | - |
| 1778112809 | 9.44° C | 38% | 1015.4 hPa | - | - | - | - |
| 1778111898 | 10° C | 38% | 1015.4 hPa | - | - | - | - |
| 1778109465 | 10.56° C | 38% | 1015.8 hPa | - | - | - | - |
| 1778108855 | 10.56° C | 38% | 1015.8 hPa | - | - | - | - |
| 1778108248 | 11.11° C | 38% | 1015.8 hPa | - | - | - | - |
| 1778107339 | 11.11° C | 38% | 1015.8 hPa | - | - | - | - |
| 1778105821 | 11.11° C | 38% | 1015.8 hPa | - | - | - | - |
| 1778105519 | 11.11° C | 38% | 1016.1 hPa | - | - | - | - |
| 1778104000 | 10.56° C | 40% | 1016.1 hPa | - | - | - | - |
| 1778103396 | 10° C | 40% | 1016.1 hPa | - | - | - | - |
| 1778102790 | 10° C | 41% | 1016.1 hPa | - | - | - | - |
| 1778102485 | 10° C | 41% | 1015.8 hPa | - | - | - | - |
* Rain since midnight (hover to see other rain measurements)
** Current wind speed in m/s (hover to see current wind gust speed)